Location: Newark
(46.7000°N, 60.6000°W)
Time: 21:19:58
(UTC+00:00)

Vanguard 1 Rocket - Pass Details

Date: 04 November 2020
Orbit: 656 x 4221 km, 34.3° (Epoch: 30 November)

Event Time Altitude Azimuth Distance (km) Brightness Sun altitude
Rises 13:16:56 0° 240° (WSW) 4,377 10.8 19.3°
Reaches altitude 10° 13:21:05 10° 226° (SW) 2,899 10.1 19.7°
Maximum altitude 13:25:48 21° 179° (S) 1,758 10.0 20.2°
Drops below altitude 10° 13:29:25 10° 129° (SE) 2,163 11.1 20.5°
Sets 13:31:59 0° 112° (ESE) 2,984 11.0 20.8°
